Weather History for International Falls, MN

Change the Weather History Date:

Friday, October 11, 2013

  Actual Average Record
Temperature  
Mean Temperature 63 °F 43 °F  
Max Temperature 71 °F 54 °F 77 °F (1920)
Min Temperature 55 °F 33 °F 19 °F (2006)
Degree Days  
Heating Degree Days 2 22  
Month to date heating degree days 144 219  
Since 1 July heating degree days 586 753  
Cooling Degree Days 0 0  
Month to date cooling degree days 0 0  
Year to date cooling degree days 224 192  
Growing Degree Days 13 (Base 50)    
Moisture  
Dew Point 50 °F    
Average Humidity 67    
Maximum Humidity 84    
Minimum Humidity 49    
Precipitation  
Precipitation 0.08 in 0.07 in 0.87 in (1947)
Month to date precipitation 0.75 0.85  
Year to date precipitation 27.87 20.80  
Snow  
Snow 0.00 in 0.00 in 0.20 in (1959)
Month to date snowfall 0.0 0.3  
Since 1 July snowfall 0.0 0.4  
Since 1 September snowfall 0.0 0.4  
Snow Depth 0.00 in    
Sea Level Pressure  
Sea Level Pressure 29.75 in    
Wind  
Wind Speed 13 mph (SE)    
Max Wind Speed 24 mph    
Max Gust Speed 32 mph    
Visibility 10 miles    
Events Rain    
T = Trace of Precipitation, MM = Missing Value Source: NWS Daily Summary

Daily Weather History Graph

Daily Weather History Graph

Search for Another Location

Airport:

Trip Planner

Search our weather history database for the weather conditions in past years. The results will help you decide how hot, cold, wet, or windy it might be!

Date:

Astronomy

Oct. 11, 2013 Rise Set
Actual Time 7:28 AM CDT 6:31 PM CDT
Civil Twilight 6:56 AM CDT 7:03 PM CDT
Nautical Twilight 6:20 AM CDT 7:39 PM CDT
Astronomical Twilight 5:43 AM CDT 8:15 PM CDT
Moon 2:25 PM CDT (10/11) No Moon Set
Length of Visible Light 12h 06m
Length of Day
11h 03m
Waxing Crescent, 47% of the Moon is Illuminated
Oct 11
Waxing Crescent
Oct 11
First Quarter
Oct 18
Full
Oct 26
Last Quarter
Nov 3
New

Hourly Weather History & Observations

Time (CDT) Temp. Dew Point Humidity Pressure Visibility Wind Dir Wind Speed Gust Speed Precip Events Conditions
12:55 AM 55.0 °F 46.0 °F 72% 29.88 in 10.0 mi SE 6.9 mph - N/A   Clear
1:55 AM 55.0 °F 46.0 °F 72% 29.88 in 10.0 mi SE 8.1 mph - N/A   Clear
2:55 AM 55.9 °F 46.0 °F 69% 29.88 in 10.0 mi SE 6.9 mph - N/A   Clear
3:55 AM 57.0 °F 46.9 °F 69% 29.87 in 10.0 mi SE 8.1 mph - N/A   Clear
4:55 AM 57.0 °F 46.9 °F 69% 29.86 in 10.0 mi SSE 9.2 mph - N/A   Clear
5:55 AM 55.0 °F 46.9 °F 74% 29.86 in 10.0 mi SE 6.9 mph - N/A   Clear
6:55 AM 57.0 °F 46.9 °F 69% 29.87 in 10.0 mi SSE 8.1 mph - N/A   Clear
7:55 AM 55.0 °F 48.0 °F 77% 29.85 in 10.0 mi SE 8.1 mph - N/A   Clear
8:55 AM 57.0 °F 48.9 °F 74% 29.84 in 10.0 mi SE 10.4 mph - N/A   Clear
9:55 AM 59.0 °F 48.9 °F 69% 29.84 in 10.0 mi SE 13.8 mph - N/A   Clear
10:55 AM 61.0 °F 51.1 °F 70% 29.81 in 10.0 mi SE 13.8 mph - N/A   Clear
11:55 AM 64.9 °F 52.0 °F 63% 29.78 in 10.0 mi SE 12.7 mph - N/A   Clear
12:55 PM 68.0 °F 53.1 °F 59% 29.74 in 10.0 mi SE 19.6 mph 27.6 mph N/A   Clear
1:55 PM 71.1 °F 51.1 °F 49% 29.68 in 10.0 mi SE 23.0 mph 29.9 mph N/A   Clear
2:55 PM 70.0 °F 51.1 °F 51% 29.66 in 10.0 mi SE 16.1 mph 28.8 mph N/A   Clear
3:55 PM 69.1 °F 50.0 °F 51% 29.67 in 10.0 mi SE 16.1 mph 23.0 mph N/A   Clear
4:55 PM 69.1 °F 50.0 °F 51% 29.68 in 10.0 mi SSE 10.4 mph 21.9 mph N/A   Clear
5:55 PM 66.9 °F 51.1 °F 57% 29.69 in 10.0 mi SE 11.5 mph 23.0 mph N/A   Scattered Clouds
6:55 PM 62.1 °F 55.0 °F 78% 29.66 in 7.0 mi SE 13.8 mph - 0.06 in Rain Light Rain
7:55 PM 61.0 °F 55.0 °F 81% 29.65 in 10.0 mi ESE 13.8 mph - 0.01 in Rain Light Rain
8:55 PM 60.1 °F 54.0 °F 80% 29.60 in 10.0 mi ESE 16.1 mph 23.0 mph 0.00 in   Mostly Cloudy
9:55 PM 61.0 °F 53.1 °F 75% 29.56 in 10.0 mi ESE 16.1 mph 24.2 mph N/A   Overcast
10:55 PM 62.1 °F 53.1 °F 72% 29.54 in 10.0 mi SE 16.1 mph 25.3 mph N/A   Scattered Clouds
11:55 PM 61.0 °F 55.0 °F 81% 29.52 in 10.0 mi SSE 11.5 mph - 0.01 in Rain Light Rain